Location: Newark
(43.0658°N, 122.2322°W)
Time: 19:02:32
(UTC+00:00)

N. Korean satellite - Visible Passes

Search period start: 28 September 2020 00:00
Search period end: 08 October 2020 00:00
Orbit: 455 x 503 km, 97.2° (Epoch: 28 September)

Date Brightness Start Highest point End Pass type
(mag) Time Alt. Az. Time Alt. Az. Time Alt. Az.
28 Sep 7.7 13:28:03 10° NNE 13:31:36 50° E 13:35:03 10° S visible
29 Sep 9.3 13:02:30 10° NE 13:05:27 23° E 13:08:20 10° SSE visible
30 Sep 10.1 12:37:56 10° ENE 12:39:12 11° E 12:40:27 10° ESE visible
02 Oct 8.4 13:17:23 10° NNE 13:20:43 35° E 13:23:59 10° SSE visible
03 Oct 9.7 12:52:04 10° NE 12:54:31 17° E 12:56:55 10° SE visible
05 Oct 10.8 02:10:15 10° WSW 02:11:12 11° W 02:12:08 10° WNW visible
05 Oct 7.3 13:32:24 10° NNE 13:35:55 57° E 13:39:21 10° S visible
06 Oct 9.0 13:06:43 10° NE 13:09:45 26° E 13:12:43 10° SSE visible
07 Oct 10.0 12:41:50 10° ENE 12:43:28 13° E 12:45:06 10° ESE visible
